GFSMW_prec_precacc24_108.txt.gz
Total_Precipitation_Accumulation
0.00 0.00 0.01 0.01 0.03 0.04 0.03 0.11 0.23 0.30 0.16 0.09 0.33 0.78 0.72 0.60 0.62 0.49 0.40 0.40 0.25 0.17 0.10 0.03 0.01 0.04 0.03 0.05 0.02 0.00 0.01 0.01 0.01 0.00 0.00 0.00 0.00 0.00 0.00 0.00 0.00 0.00 0.00
0.00 0.00 0.01 0.01 0.01 0.01 0.02 0.01 0.10 0.25 0.09 0.10 0.22 0.50 0.56 0.57 0.52 0.61 0.48 0.36 0.23 0.14 0.08 0.03 0.01 0.01 0.03 0.03 0.02 0.01 0.02 0.02 0.02 0.01 0.00 0.00 0.00 0.00 0.00 0.00 0.00 0.00 0.00
0.00 0.00 0.00 0.01 0.01 0.01 0.00 0.00 0.01 0.12 0.12 0.05 0.10 0.31 0.51 0.62 0.76 0.94 0.81 0.46 0.27 0.13 0.08 0.06 0.02 0.03 0.03 0.02 0.02 0.01 0.01 0.02 0.02 0.02 0.00 0.00 0.00 0.00 0.00 0.00 0.00 0.00 0.00
0.00 0.00 0.00 0.00 0.01 0.00 0.00 0.00 0.01 0.02 0.03 0.01 0.02 0.14 0.47 0.51 0.66 0.71 0.94 0.57 0.37 0.20 0.12 0.08 0.04 0.04 0.05 0.03 0.04 0.03 0.03 0.02 0.02 0.02 0.01 0.00 0.00 0.01 0.00 0.00 0.00 0.00 0.00
0.00 0.00 0.00 0.00 0.00 0.00 0.00 0.00 0.00 0.00 0.01 0.00 0.00 0.03 0.14 0.27 0.45 0.68 0.99 1.08 0.69 0.39 0.18 0.11 0.06 0.08 0.08 0.16 0.10 0.06 0.08 0.07 0.05 0.04 0.03 0.02 0.01 0.01 0.01 0.01 0.00 0.00 0.00
0.00 0.00 0.00 0.00 0.00 0.00 0.00 0.00 0.00 0.00 0.01 0.00 0.00 0.01 0.03 0.03 0.15 0.41 0.67 1.19 1.06 0.66 0.39 0.18 0.11 0.12 0.13 0.21 0.21 0.22 0.16 0.16 0.12 0.07 0.06 0.03 0.03 0.04 0.07 0.12 0.13 0.10 0.03
0.00 0.00 0.00 0.00 0.00 0.00 0.00 0.00 0.00 0.00 0.00 0.00 0.00 0.00 0.01 0.00 0.01 0.07 0.21 0.49 0.92 0.78 0.52 0.26 0.15 0.17 0.19 0.23 0.28 0.30 0.25 0.17 0.16 0.11 0.13 0.14 0.11 0.11 0.15 0.17 0.15 0.11 0.05
0.00 0.00 0.00 0.00 0.00 0.00 0.00 0.00 0.00 0.00 0.00 0.00 0.01 0.00 0.00 0.00 0.00 0.01 0.05 0.11 0.25 0.47 0.49 0.40 0.21 0.19 0.21 0.22 0.26 0.33 0.29 0.23 0.23 0.23 0.23 0.25 0.21 0.17 0.14 0.10 0.10 0.12 0.05
0.00 0.00 0.00 0.00 0.02 0.02 0.03 0.01 0.00 0.00 0.00 0.00 0.00 0.00 0.00 0.00 0.00 0.00 0.02 0.11 0.08 0.22 0.34 0.41 0.39 0.27 0.21 0.16 0.18 0.16 0.17 0.20 0.18 0.16 0.20 0.22 0.16 0.16 0.13 0.09 0.08 0.10 0.09
0.00 0.00 0.00 0.00 0.01 0.02 0.07 0.08 0.03 0.00 0.00 0.00 0.00 0.00 0.00 0.00 0.00 0.00 0.00 0.04 0.04 0.11 0.16 0.34 0.38 0.32 0.22 0.15 0.14 0.12 0.13 0.15 0.13 0.13 0.13 0.14 0.10 0.11 0.14 0.14 0.13 0.15 0.22
0.01 0.00 0.00 0.00 0.00 0.02 0.02 0.09 0.11 0.07 0.02 0.00 0.00 0.00 0.00 0.00 0.00 0.00 0.00 0.04 0.06 0.10 0.15 0.18 0.35 0.35 0.33 0.30 0.29 0.29 0.25 0.23 0.22 0.19 0.20 0.20 0.21 0.27 0.28 0.32 0.37 0.39 0.43
0.02 0.04 0.02 0.00 0.00 0.00 0.00 0.01 0.09 0.11 0.19 0.09 0.01 0.00 0.00 0.00 0.00 0.01 0.02 0.06 0.15 0.24 0.28 0.29 0.36 0.45 0.56 0.73 0.80 0.71 0.64 0.58 0.52 0.47 0.49 0.46 0.46 0.49 0.40 0.35 0.31 0.29 0.31
0.01 0.02 0.04 0.01 0.00 0.00 0.00 0.00 0.00 0.04 0.10 0.12 0.07 0.02 0.03 0.01 0.02 0.02 0.05 0.14 0.31 0.69 0.90 0.97 0.84 0.72 0.65 0.55 0.48 0.41 0.33 0.27 0.25 0.26 0.29 0.28 0.30 0.28 0.25 0.26 0.30 0.40 0.55
0.01 0.05 0.08 0.08 0.04 0.02 0.00 0.00 0.00 0.00 0.00 0.00 0.02 0.01 0.02 0.02 0.04 0.06 0.12 0.43 0.85 0.68 0.46 0.39 0.27 0.14 0.08 0.04 0.04 0.06 0.10 0.14 0.21 0.24 0.25 0.23 0.27 0.32 0.44 0.57 0.69 0.77 0.78
0.01 0.01 0.08 0.13 0.09 0.05 0.04 0.01 0.00 0.00 0.00 0.00 0.00 0.00 0.00 0.03 0.06 0.13 0.29 0.34 0.23 0.20 0.18 0.15 0.13 0.11 0.07 0.06 0.06 0.08 0.13 0.15 0.18 0.26 0.36 0.43 0.59 0.57 0.47 0.43 0.38 0.43 0.49
0.00 0.00 0.01 0.07 0.08 0.07 0.07 0.05 0.03 0.00 0.00 0.00 0.00 0.00 0.01 0.02 0.05 0.09 0.10 0.12 0.14 0.14 0.13 0.14 0.12 0.13 0.11 0.18 0.19 0.20 0.22 0.30 0.36 0.41 0.39 0.40 0.61 0.48 0.62 0.59 0.59 0.56 0.57
0.00 0.00 0.00 0.01 0.12 0.09 0.05 0.07 0.08 0.06 0.01 0.00 0.00 0.00 0.01 0.02 0.04 0.05 0.06 0.07 0.07 0.08 0.09 0.10 0.10 0.14 0.19 0.50 0.36 0.40 0.24 0.30 0.40 0.47 0.54 0.62 0.74 0.81 0.54 0.66 0.62 0.54 0.51
0.00 0.00 0.00 0.00 0.01 0.04 0.08 0.12 0.16 0.17 0.09 0.02 0.01 0.01 0.01 0.02 0.02 0.02 0.05 0.06 0.07 0.08 0.10 0.16 0.24 0.27 0.47 0.65 0.44 0.49 0.35 0.44 0.53 0.53 0.49 0.46 0.48 0.56 0.51 0.42 0.39 0.33 0.23
0.00 0.00 0.00 0.00 0.00 0.01 0.08 0.20 0.22 0.24 0.20 0.12 0.07 0.04 0.02 0.03 0.05 0.09 0.10 0.10 0.11 0.16 0.18 0.24 0.28 0.29 0.38 0.58 0.37 0.30 0.15 0.21 0.26 0.29 0.35 0.41 0.43 0.53 0.43 0.27 0.18 0.14 0.12
0.00 0.00 0.00 0.00 0.01 0.05 0.08 0.04 0.06 0.10 0.13 0.12 0.09 0.06 0.04 0.04 0.05 0.05 0.07 0.10 0.15 0.21 0.23 0.29 0.26 0.33 0.19 0.39 0.26 0.18 0.06 0.16 0.26 0.33 0.42 0.48 0.29 0.21 0.14 0.10 0.09 0.10 0.10
0.00 0.00 0.00 0.00 0.00 0.04 0.09 0.09 0.09 0.08 0.16 0.16 0.15 0.11 0.06 0.03 0.04 0.07 0.10 0.13 0.16 0.15 0.15 0.14 0.11 0.11 0.16 0.28 0.25 0.18 0.10 0.14 0.19 0.22 0.20 0.15 0.18 0.11 0.08 0.09 0.11 0.11 0.08
0.00 0.00 0.00 0.00 0.00 0.01 0.05 0.11 0.16 0.15 0.20 0.16 0.17 0.16 0.12 0.07 0.05 0.05 0.07 0.09 0.10 0.12 0.11 0.12 0.13 0.12 0.17 0.26 0.24 0.21 0.17 0.18 0.19 0.23 0.21 0.16 0.10 0.08 0.07 0.07 0.05 0.03 0.04
0.00 0.00 0.00 0.00 0.00 0.00 0.00 0.03 0.07 0.08 0.10 0.15 0.17 0.14 0.11 0.10 0.09 0.08 0.08 0.11 0.11 0.11 0.10 0.10 0.15 0.22 0.29 0.40 0.41 0.27 0.18 0.15 0.15 0.14 0.11 0.09 0.07 0.06 0.09 0.05 0.03 0.03 0.03
0.01 0.00 0.00 0.00 0.01 0.00 0.00 0.00 0.01 0.03 0.03 0.04 0.05 0.05 0.08 0.07 0.07 0.08 0.09 0.09 0.10 0.10 0.14 0.22 0.30 0.31 0.29 0.24 0.19 0.15 0.14 0.13 0.10 0.07 0.06 0.04 0.04 0.05 0.06 0.07 0.06 0.06 0.05
0.02 0.02 0.02 0.01 0.02 0.03 0.02 0.03 0.05 0.07 0.06 0.05 0.05 0.05 0.08 0.07 0.09 0.16 0.23 0.27 0.41 0.40 0.43 0.46 0.39 0.35 0.34 0.28 0.19 0.14 0.08 0.04 0.03 0.04 0.05 0.07 0.06 0.07 0.07 0.06 0.06 0.06 0.05
0.16 0.13 0.10 0.06 0.06 0.06 0.08 0.07 0.08 0.11 0.11 0.09 0.11 0.14 0.11 0.12 0.16 0.23 0.41 0.48 0.53 0.54 0.54 0.54 0.43 0.34 0.28 0.16 0.10 0.07 0.07 0.07 0.06 0.04 0.04 0.04 0.03 0.04 0.05 0.06 0.06 0.04 0.04

GFSMW_prec_precacc24_111.txt.gz
Total_Precipitation_Accumulation
0.00 0.00 0.00 0.00 0.01 0.02 0.01 0.07 0.14 0.22 0.15 0.06 0.33 0.78 0.71 0.56 0.61 0.67 0.62 0.50 0.34 0.21 0.10 0.02 0.02 0.04 0.03 0.05 0.02 0.00 0.01 0.01 0.01 0.00 0.00 0.00 0.00 0.00 0.00 0.00 0.00 0.00 0.00
0.00 0.00 0.00 0.00 0.01 0.01 0.01 0.01 0.08 0.23 0.08 0.08 0.22 0.50 0.56 0.56 0.52 0.62 0.55 0.48 0.34 0.20 0.10 0.03 0.01 0.01 0.03 0.03 0.02 0.01 0.02 0.02 0.02 0.01 0.00 0.00 0.00 0.00 0.00 0.00 0.00 0.00 0.00
0.00 0.00 0.00 0.01 0.01 0.01 0.00 0.00 0.01 0.12 0.12 0.05 0.10 0.31 0.53 0.64 0.78 0.95 0.84 0.50 0.35 0.23 0.11 0.07 0.02 0.01 0.02 0.02 0.02 0.01 0.01 0.02 0.02 0.02 0.00 0.00 0.00 0.00 0.00 0.00 0.00 0.00 0.00
0.00 0.00 0.00 0.00 0.00 0.00 0.00 0.00 0.01 0.02 0.03 0.01 0.02 0.14 0.47 0.53 0.67 0.71 0.94 0.59 0.39 0.24 0.16 0.10 0.05 0.04 0.05 0.03 0.03 0.03 0.03 0.02 0.02 0.02 0.01 0.00 0.00 0.01 0.00 0.00 0.00 0.00 0.00
0.00 0.00 0.00 0.00 0.00 0.00 0.00 0.00 0.00 0.00 0.01 0.00 0.00 0.03 0.14 0.27 0.47 0.72 1.01 1.11 0.73 0.40 0.19 0.13 0.07 0.09 0.08 0.15 0.09 0.05 0.07 0.07 0.05 0.04 0.03 0.02 0.01 0.01 0.01 0.01 0.00 0.00 0.00
0.00 0.00 0.00 0.00 0.00 0.00 0.00 0.00 0.00 0.00 0.01 0.00 0.00 0.01 0.03 0.03 0.15 0.42 0.70 1.28 1.32 0.79 0.42 0.21 0.13 0.16 0.16 0.19 0.17 0.18 0.15 0.16 0.13 0.08 0.06 0.03 0.03 0.04 0.07 0.12 0.13 0.10 0.03
0.00 0.00 0.00 0.00 0.00 0.00 0.00 0.00 0.00 0.00 0.00 0.01 0.00 0.00 0.01 0.00 0.01 0.07 0.22 0.53 1.31 1.29 0.74 0.33 0.20 0.21 0.22 0.23 0.28 0.31 0.28 0.21 0.22 0.15 0.13 0.12 0.08 0.09 0.12 0.17 0.16 0.12 0.05
0.00 0.00 0.00 0.00 0.00 0.00 0.00 0.00 0.00 0.00 0.00 0.00 0.01 0.00 0.00 0.00 0.00 0.01 0.06 0.18 0.37 0.86 0.83 0.61 0.32 0.27 0.29 0.31 0.37 0.47 0.44 0.36 0.33 0.32 0.22 0.21 0.14 0.10 0.09 0.09 0.11 0.13 0.05
0.00 0.00 0.00 0.00 0.00 0.00 0.00 0.00 0.00 0.00 0.00 0.00 0.00 0.00 0.00 0.00 0.00 0.00 0.02 0.18 0.26 0.44 0.58 0.66 0.55 0.39 0.35 0.36 0.42 0.42 0.49 0.47 0.39 0.33 0.31 0.25 0.16 0.17 0.13 0.10 0.08 0.11 0.10
0.00 0.00 0.00 0.00 0.00 0.00 0.00 0.01 0.00 0.00 0.00 0.00 0.00 0.00 0.00 0.00 0.00 0.00 0.00 0.05 0.13 0.27 0.38 0.52 0.55 0.50 0.43 0.39 0.38 0.35 0.38 0.43 0.36 0.27 0.21 0.18 0.13 0.13 0.16 0.17 0.16 0.17 0.25
0.01 0.01 0.00 0.00 0.00 0.01 0.01 0.03 0.05 0.03 0.00 0.00 0.00 0.00 0.00 0.00 0.00 0.00 0.00 0.01 0.02 0.13 0.29 0.38 0.54 0.50 0.39 0.44 0.56 0.52 0.41 0.36 0.36 0.28 0.24 0.22 0.23 0.29 0.30 0.33 0.39 0.41 0.44
0.02 0.05 0.04 0.02 0.03 0.03 0.03 0.00 0.03 0.04 0.07 0.02 0.00 0.00 0.00 0.00 0.00 0.00 0.00 0.00 0.01 0.05 0.19 0.30 0.50 0.68 0.78 0.86 0.91 0.85 0.74 0.65 0.58 0.50 0.51 0.47 0.47 0.50 0.41 0.36 0.31 0.29 0.31
0.01 0.02 0.04 0.05 0.10 0.08 0.06 0.00 0.00 0.01 0.02 0.04 0.03 0.01 0.00 0.00 0.00 0.00 0.00 0.00 0.01 0.03 0.15 0.49 0.63 0.72 0.80 0.74 0.56 0.45 0.34 0.27 0.25 0.24 0.28 0.27 0.30 0.28 0.24 0.26 0.30 0.40 0.56
0.02 0.05 0.08 0.10 0.09 0.10 0.12 0.04 0.00 0.00 0.00 0.00 0.00 0.00 0.01 0.02 0.02 0.02 0.01 0.02 0.04 0.09 0.23 0.30 0.21 0.10 0.05 0.07 0.05 0.05 0.07 0.11 0.18 0.21 0.23 0.22 0.26 0.31 0.44 0.57 0.69 0.78 0.79
0.07 0.02 0.09 0.16 0.12 0.11 0.13 0.09 0.01 0.00 0.00 0.00 0.00 0.00 0.00 0.00 0.01 0.03 0.06 0.08 0.11 0.14 0.15 0.13 0.12 0.09 0.06 0.05 0.05 0.06 0.10 0.12 0.14 0.22 0.34 0.42 0.59 0.57 0.47 0.43 0.38 0.44 0.51
0.06 0.02 0.01 0.10 0.10 0.12 0.15 0.16 0.11 0.02 0.00 0.00 0.00 0.00 0.00 0.01 0.02 0.03 0.04 0.05 0.07 0.08 0.09 0.12 0.10 0.10 0.08 0.13 0.11 0.10 0.09 0.13 0.21 0.36 0.38 0.40 0.63 0.48 0.64 0.63 0.65 0.63 0.65
0.03 0.01 0.00 0.02 0.15 0.11 0.07 0.10 0.17 0.16 0.04 0.00 0.00 0.00 0.00 0.01 0.02 0.02 0.03 0.04 0.05 0.05 0.06 0.07 0.06 0.08 0.12 0.34 0.26 0.33 0.20 0.27 0.39 0.46 0.54 0.63 0.77 0.85 0.57 0.72 0.67 0.60 0.59
0.01 0.01 0.01 0.00 0.02 0.04 0.09 0.13 0.20 0.26 0.24 0.09 0.01 0.00 0.01 0.01 0.01 0.02 0.04 0.05 0.06 0.06 0.07 0.11 0.16 0.20 0.36 0.50 0.31 0.36 0.25 0.40 0.54 0.55 0.52 0.50 0.53 0.62 0.57 0.46 0.45 0.42 0.31
0.00 0.00 0.00 0.00 0.00 0.01 0.08 0.20 0.26 0.31 0.29 0.24 0.18 0.06 0.02 0.02 0.05 0.08 0.09 0.09 0.11 0.14 0.14 0.17 0.17 0.18 0.27 0.48 0.31 0.27 0.16 0.23 0.29 0.32 0.39 0.45 0.48 0.67 0.55 0.35 0.26 0.18 0.14
0.00 0.00 0.00 0.00 0.01 0.05 0.13 0.08 0.11 0.12 0.14 0.14 0.16 0.16 0.09 0.05 0.05 0.05 0.07 0.10 0.13 0.16 0.17 0.23 0.23 0.30 0.16 0.38 0.26 0.19 0.05 0.16 0.28 0.37 0.50 0.59 0.38 0.30 0.19 0.12 0.10 0.11 0.10
0.00 0.00 0.00 0.00 0.00 0.04 0.16 0.25 0.20 0.12 0.16 0.17 0.18 0.16 0.12 0.09 0.05 0.07 0.10 0.13 0.16 0.15 0.16 0.15 0.11 0.11 0.16 0.28 0.28 0.20 0.10 0.16 0.23 0.28 0.28 0.26 0.27 0.15 0.10 0.10 0.11 0.12 0.08
0.00 0.00 0.00 0.00 0.00 0.01 0.05 0.15 0.28 0.23 0.22 0.18 0.20 0.22 0.19 0.11 0.06 0.05 0.07 0.10 0.11 0.13 0.12 0.12 0.13 0.12 0.19 0.31 0.28 0.27 0.26 0.32 0.34 0.41 0.39 0.30 0.18 0.10 0.08 0.07 0.05 0.03 0.04
0.00 0.00 0.00 0.00 0.00 0.00 0.00 0.04 0.08 0.14 0.14 0.17 0.27 0.28 0.24 0.23 0.22 0.19 0.13 0.15 0.15 0.15 0.15 0.15 0.19 0.25 0.30 0.45 0.50 0.40 0.36 0.33 0.30 0.28 0.21 0.14 0.09 0.07 0.10 0.06 0.04 0.03 0.03
0.01 0.00 0.00 0.00 0.01 0.00 0.00 0.00 0.01 0.03 0.04 0.05 0.07 0.09 0.11 0.11 0.14 0.24 0.29 0.29 0.30 0.32 0.33 0.30 0.32 0.32 0.33 0.34 0.34 0.31 0.28 0.24 0.19 0.14 0.09 0.07 0.06 0.07 0.07 0.07 0.07 0.06 0.05
0.02 0.02 0.02 0.01 0.02 0.03 0.02 0.03 0.05 0.07 0.07 0.06 0.06 0.07 0.10 0.09 0.10 0.18 0.26 0.29 0.42 0.40 0.46 0.53 0.54 0.56 0.63 0.63 0.52 0.40 0.29 0.20 0.14 0.10 0.09 0.08 0.07 0.08 0.07 0.06 0.06 0.06 0.05
0.16 0.14 0.10 0.07 0.07 0.07 0.08 0.08 0.09 0.11 0.12 0.11 0.14 0.19 0.15 0.16 0.19 0.26 0.53 0.62 0.74 0.81 0.82 0.86 0.78 0.73 0.64 0.52 0.38 0.26 0.19 0.15 0.11 0.07 0.06 0.05 0.04 0.04 0.05 0.06 0.06 0.04 0.04

GFSMW_prec_precacc24_114.txt.gz
Total_Precipitation_Accumulation
0.00 0.00 0.00 0.00 0.00 0.00 0.00 0.01 0.03 0.08 0.13 0.05 0.31 0.73 0.68 0.55 0.60 0.70 0.67 0.56 0.65 0.57 0.31 0.06 0.04 0.06 0.04 0.05 0.02 0.00 0.01 0.01 0.01 0.00 0.00 0.00 0.00 0.00 0.00 0.00 0.00 0.00 0.00
0.00 0.00 0.00 0.00 0.00 0.00 0.00 0.00 0.02 0.06 0.06 0.06 0.20 0.47 0.55 0.56 0.51 0.62 0.58 0.53 0.57 0.39 0.17 0.07 0.03 0.02 0.03 0.03 0.02 0.01 0.02 0.02 0.02 0.01 0.00 0.00 0.00 0.00 0.00 0.00 0.00 0.00 0.00
0.00 0.00 0.00 0.00 0.00 0.00 0.00 0.00 0.01 0.08 0.10 0.04 0.07 0.30 0.52 0.63 0.78 0.95 0.86 0.58 0.49 0.32 0.17 0.07 0.03 0.02 0.02 0.01 0.01 0.00 0.01 0.02 0.02 0.02 0.00 0.00 0.00 0.00 0.00 0.00 0.00 0.00 0.00
0.00 0.00 0.00 0.00 0.00 0.00 0.00 0.00 0.01 0.01 0.03 0.01 0.01 0.14 0.47 0.52 0.68 0.72 0.95 0.62 0.46 0.35 0.25 0.13 0.05 0.04 0.04 0.02 0.02 0.01 0.02 0.02 0.02 0.02 0.01 0.00 0.00 0.01 0.00 0.00 0.00 0.00 0.00
0.00 0.00 0.00 0.00 0.00 0.00 0.00 0.00 0.00 0.00 0.01 0.00 0.00 0.03 0.14 0.27 0.47 0.72 1.02 1.13 0.75 0.45 0.27 0.18 0.09 0.09 0.09 0.14 0.06 0.04 0.05 0.06 0.04 0.04 0.03 0.02 0.01 0.01 0.01 0.01 0.00 0.00 0.00
0.00 0.00 0.00 0.00 0.00 0.00 0.00 0.00 0.00 0.00 0.02 0.01 0.00 0.01 0.03 0.03 0.15 0.42 0.70 1.30 1.36 0.81 0.45 0.26 0.17 0.16 0.16 0.19 0.15 0.13 0.11 0.14 0.12 0.08 0.05 0.03 0.03 0.04 0.06 0.12 0.12 0.10 0.03
0.00 0.00 0.00 0.00 0.00 0.00 0.00 0.00 0.00 0.01 0.01 0.01 0.00 0.00 0.01 0.00 0.01 0.07 0.23 0.54 1.33 1.33 0.76 0.35 0.22 0.23 0.23 0.24 0.26 0.24 0.21 0.18 0.20 0.14 0.13 0.12 0.07 0.07 0.10 0.14 0.13 0.10 0.05
0.00 0.00 0.00 0.00 0.00 0.00 0.00 0.00 0.00 0.00 0.01 0.01 0.01 0.00 0.00 0.00 0.00 0.01 0.06 0.18 0.38 0.91 0.94 0.66 0.35 0.29 0.30 0.32 0.36 0.45 0.40 0.32 0.31 0.34 0.24 0.20 0.13 0.09 0.08 0.07 0.10 0.12 0.06
0.00 0.00 0.00 0.00 0.00 0.00 0.00 0.00 0.00 0.00 0.01 0.00 0.01 0.00 0.00 0.00 0.00 0.00 0.02 0.18 0.27 0.52 0.76 0.89 0.75 0.53 0.41 0.41 0.46 0.47 0.50 0.47 0.46 0.46 0.47 0.35 0.23 0.23 0.19 0.13 0.11 0.13 0.11
0.00 0.00 0.00 0.00 0.00 0.00 0.00 0.00 0.01 0.04 0.02 0.00 0.01 0.00 0.00 0.00 0.00 0.00 0.00 0.05 0.14 0.34 0.52 0.75 0.91 0.80 0.58 0.53 0.58 0.58 0.53 0.60 0.60 0.55 0.50 0.43 0.29 0.26 0.27 0.25 0.22 0.23 0.32
0.01 0.01 0.00 0.00 0.00 0.01 0.03 0.06 0.08 0.05 0.02 0.00 0.01 0.01 0.00 0.00 0.00 0.00 0.00 0.01 0.03 0.14 0.36 0.59 0.81 0.85 0.62 0.56 0.68 0.62 0.51 0.50 0.62 0.64 0.53 0.42 0.39 0.44 0.39 0.41 0.45 0.47 0.50
0.02 0.05 0.04 0.02 0.03 0.04 0.05 0.06 0.05 0.04 0.03 0.01 0.00 0.01 0.00 0.01 0.00 0.00 0.00 0.00 0.01 0.03 0.14 0.38 0.69 0.75 0.74 0.67 0.75 0.77 0.76 0.83 0.77 0.67 0.73 0.67 0.59 0.55 0.44 0.39 0.34 0.31 0.33
0.02 0.02 0.04 0.05 0.11 0.11 0.09 0.05 0.02 0.01 0.00 0.00 0.01 0.01 0.00 0.01 0.01 0.00 0.00 0.00 0.00 0.00 0.03 0.08 0.27 0.51 0.58 0.74 0.68 0.61 0.53 0.49 0.41 0.40 0.38 0.34 0.32 0.27 0.22 0.24 0.30 0.40 0.57
0.09 0.09 0.10 0.10 0.12 0.14 0.16 0.12 0.04 0.01 0.00 0.00 0.00 0.00 0.01 0.01 0.01 0.01 0.00 0.00 0.00 0.01 0.01 0.02 0.07 0.17 0.22 0.30 0.44 0.30 0.25 0.22 0.19 0.21 0.23 0.21 0.24 0.30 0.42 0.55 0.67 0.77 0.78
0.30 0.16 0.12 0.17 0.13 0.15 0.18 0.18 0.06 0.02 0.00 0.00 0.00 0.00 0.01 0.01 0.01 0.00 0.01 0.02 0.02 0.03 0.04 0.05 0.07 0.11 0.11 0.20 0.21 0.17 0.13 0.15 0.14 0.17 0.26 0.30 0.46 0.49 0.44 0.42 0.37 0.43 0.51
0.24 0.21 0.12 0.12 0.11 0.14 0.19 0.21 0.16 0.06 0.00 0.00 0.00 0.00 0.01 0.01 0.01 0.01 0.01 0.02 0.02 0.03 0.03 0.04 0.05 0.07 0.07 0.15 0.15 0.14 0.09 0.13 0.16 0.21 0.23 0.27 0.49 0.39 0.58 0.60 0.65 0.64 0.65
0.06 0.12 0.13 0.08 0.18 0.13 0.11 0.12 0.18 0.20 0.06 0.00 0.00 0.00 0.00 0.00 0.01 0.01 0.02 0.02 0.02 0.03 0.03 0.03 0.03 0.06 0.10 0.28 0.15 0.21 0.11 0.16 0.27 0.37 0.46 0.56 0.72 0.83 0.55 0.71 0.67 0.62 0.62
0.03 0.04 0.07 0.04 0.10 0.12 0.18 0.17 0.22 0.29 0.30 0.12 0.00 0.00 0.00 0.00 0.01 0.02 0.03 0.03 0.06 0.06 0.07 0.10 0.15 0.15 0.22 0.29 0.16 0.19 0.09 0.17 0.32 0.38 0.39 0.44 0.53 0.64 0.58 0.47 0.46 0.43 0.34
0.00 0.01 0.01 0.01 0.02 0.08 0.18 0.37 0.32 0.35 0.34 0.27 0.17 0.05 0.01 0.01 0.04 0.06 0.08 0.08 0.11 0.14 0.14 0.16 0.16 0.15 0.17 0.33 0.19 0.14 0.04 0.12 0.23 0.29 0.39 0.46 0.50 0.75 0.59 0.36 0.27 0.19 0.15
0.00 0.00 0.00 0.00 0.01 0.06 0.18 0.18 0.19 0.25 0.23 0.17 0.16 0.16 0.08 0.03 0.03 0.04 0.07 0.09 0.11 0.13 0.15 0.20 0.19 0.24 0.13 0.31 0.21 0.17 0.04 0.16 0.28 0.37 0.52 0.62 0.41 0.39 0.25 0.15 0.12 0.12 0.11
0.00 0.00 0.00 0.00 0.00 0.04 0.16 0.40 0.35 0.26 0.28 0.19 0.20 0.19 0.14 0.09 0.05 0.06 0.09 0.12 0.16 0.15 0.16 0.16 0.12 0.11 0.16 0.28 0.27 0.21 0.08 0.12 0.19 0.27 0.31 0.35 0.36 0.20 0.13 0.13 0.15 0.15 0.10
0.00 0.00 0.00 0.00 0.00 0.01 0.05 0.18 0.41 0.41 0.33 0.22 0.21 0.24 0.25 0.17 0.08 0.06 0.07 0.09 0.10 0.13 0.12 0.13 0.12 0.12 0.18 0.30 0.26 0.24 0.25 0.33 0.34 0.47 0.49 0.44 0.36 0.26 0.21 0.17 0.13 0.10 0.09
0.00 0.00 0.00 0.00 0.00 0.00 0.00 0.05 0.11 0.19 0.27 0.34 0.37 0.35 0.32 0.38 0.38 0.29 0.25 0.21 0.17 0.16 0.15 0.15 0.20 0.26 0.30 0.45 0.47 0.40 0.40 0.37 0.33 0.35 0.32 0.27 0.22 0.19 0.22 0.16 0.11 0.08 0.06
0.01 0.00 0.00 0.00 0.01 0.00 0.01 0.01 0.03 0.05 0.06 0.11 0.15 0.22 0.37 0.32 0.32 0.42 0.45 0.49 0.54 0.52 0.55 0.54 0.51 0.46 0.44 0.44 0.43 0.38 0.36 0.34 0.29 0.23 0.21 0.19 0.17 0.16 0.15 0.13 0.11 0.09 0.06
0.02 0.02 0.02 0.01 0.03 0.03 0.03 0.03 0.06 0.10 0.11 0.09 0.08 0.12 0.13 0.11 0.12 0.20 0.27 0.29 0.39 0.37 0.43 0.51 0.54 0.57 0.68 0.75 0.68 0.54 0.42 0.35 0.30 0.28 0.24 0.21 0.17 0.14 0.10 0.07 0.07 0.05 0.05
0.16 0.13 0.11 0.08 0.08 0.08 0.09 0.09 0.09 0.13 0.15 0.16 0.19 0.24 0.17 0.18 0.22 0.29 0.59 0.69 0.80 0.84 0.83 0.91 0.92 0.98 0.90 0.82 0.65 0.49 0.34 0.25 0.16 0.09 0.07 0.06 0.04 0.04 0.03 0.04 0.04 0.03 0.03

GFSMW_prec_precacc24_120.txt.gz
Total_Precipitation_Accumulation
0.00 0.00 0.00 0.00 0.00 0.00 0.00 0.00 0.01 0.00 0.00 0.01 0.08 0.29 0.39 0.31 0.37 0.47 0.45 0.41 0.64 0.72 0.87 0.56 0.31 0.27 0.32 0.19 0.04 0.00 0.00 0.00 0.00 0.00 0.00 0.00 0.00 0.00 0.00 0.00 0.00 0.00 0.00
0.00 0.00 0.00 0.00 0.00 0.00 0.00 0.00 0.00 0.00 0.00 0.00 0.05 0.21 0.41 0.42 0.41 0.52 0.49 0.48 0.57 0.44 0.65 0.71 0.51 0.22 0.22 0.26 0.06 0.00 0.00 0.00 0.00 0.00 0.00 0.00 0.01 0.00 0.00 0.00 0.00 0.00 0.00
0.00 0.00 0.00 0.00 0.00 0.00 0.00 0.00 0.00 0.00 0.01 0.01 0.03 0.20 0.36 0.54 0.73 0.92 0.83 0.56 0.56 0.44 0.40 0.59 0.65 0.32 0.19 0.19 0.09 0.01 0.00 0.00 0.00 0.00 0.00 0.00 0.00 0.00 0.00 0.00 0.00 0.00 0.00
0.00 0.00 0.00 0.00 0.00 0.00 0.00 0.00 0.00 0.00 0.00 0.00 0.01 0.11 0.42 0.47 0.66 0.71 0.95 0.62 0.49 0.47 0.38 0.38 0.62 0.46 0.16 0.11 0.08 0.02 0.01 0.00 0.00 0.00 0.00 0.00 0.00 0.01 0.00 0.00 0.00 0.00 0.00
0.00 0.00 0.00 0.00 0.00 0.00 0.00 0.00 0.00 0.00 0.00 0.00 0.00 0.03 0.14 0.26 0.44 0.72 1.02 1.15 0.76 0.50 0.43 0.39 0.51 0.51 0.29 0.18 0.09 0.05 0.04 0.03 0.01 0.00 0.00 0.00 0.00 0.01 0.01 0.01 0.00 0.00 0.00
0.00 0.00 0.00 0.00 0.00 0.00 0.00 0.00 0.00 0.00 0.02 0.01 0.00 0.01 0.03 0.04 0.15 0.42 0.71 1.32 1.38 0.83 0.52 0.47 0.53 0.56 0.46 0.30 0.20 0.11 0.06 0.07 0.05 0.02 0.02 0.00 0.00 0.01 0.01 0.01 0.02 0.04 0.02
0.00 0.00 0.00 0.00 0.00 0.00 0.00 0.00 0.00 0.02 0.02 0.01 0.00 0.01 0.04 0.00 0.01 0.07 0.24 0.57 1.40 1.37 0.77 0.40 0.42 0.57 0.56 0.38 0.30 0.24 0.19 0.13 0.16 0.09 0.08 0.06 0.01 0.01 0.01 0.02 0.02 0.03 0.03
0.00 0.00 0.00 0.00 0.00 0.00 0.00 0.00 0.01 0.01 0.02 0.02 0.06 0.04 0.01 0.00 0.00 0.02 0.07 0.19 0.43 0.99 0.97 0.66 0.37 0.47 0.62 0.49 0.40 0.43 0.39 0.31 0.28 0.31 0.19 0.14 0.07 0.03 0.02 0.01 0.03 0.06 0.04
0.00 0.00 0.00 0.00 0.00 0.00 0.00 0.00 0.01 0.01 0.05 0.07 0.04 0.02 0.03 0.00 0.00 0.01 0.03 0.19 0.29 0.60 0.87 0.95 0.77 0.54 0.52 0.60 0.52 0.48 0.50 0.46 0.43 0.43 0.43 0.32 0.21 0.21 0.16 0.09 0.06 0.09 0.10
0.00 0.00 0.00 0.00 0.00 0.00 0.00 0.00 0.02 0.05 0.07 0.04 0.03 0.03 0.01 0.00 0.00 0.00 0.01 0.06 0.15 0.37 0.61 0.91 1.22 1.10 0.69 0.60 0.68 0.65 0.54 0.59 0.59 0.56 0.53 0.49 0.36 0.29 0.26 0.21 0.18 0.17 0.21
0.01 0.01 0.00 0.00 0.00 0.01 0.03 0.05 0.07 0.05 0.05 0.04 0.04 0.04 0.06 0.03 0.00 0.00 0.00 0.01 0.03 0.15 0.39 0.72 1.22 1.58 1.14 0.83 0.79 0.73 0.57 0.45 0.48 0.56 0.53 0.46 0.44 0.47 0.37 0.34 0.34 0.30 0.30
0.02 0.05 0.04 0.02 0.03 0.04 0.07 0.07 0.06 0.05 0.04 0.01 0.05 0.08 0.07 0.02 0.00 0.00 0.00 0.00 0.01 0.04 0.15 0.41 0.92 1.32 1.57 1.16 0.90 0.81 0.67 0.61 0.44 0.32 0.41 0.42 0.36 0.34 0.31 0.31 0.29 0.28 0.31
0.02 0.02 0.04 0.05 0.11 0.14 0.13 0.07 0.05 0.04 0.04 0.04 0.08 0.07 0.04 0.01 0.01 0.00 0.00 0.00 0.00 0.01 0.03 0.07 0.36 0.72 0.92 1.29 1.11 0.86 0.75 0.78 0.67 0.48 0.35 0.34 0.32 0.24 0.18 0.19 0.25 0.38 0.57
0.09 0.09 0.12 0.13 0.12 0.15 0.23 0.24 0.21 0.16 0.13 0.11 0.10 0.05 0.03 0.02 0.01 0.00 0.00 0.00 0.00 0.01 0.01 0.02 0.05 0.28 0.58 0.84 0.97 0.97 1.04 0.99 0.92 0.78 0.66 0.46 0.35 0.32 0.33 0.42 0.55 0.64 0.68
0.30 0.18 0.18 0.22 0.15 0.16 0.22 0.34 0.24 0.20 0.16 0.13 0.08 0.03 0.02 0.02 0.02 0.01 0.00 0.00 0.00 0.00 0.01 0.01 0.02 0.07 0.27 0.69 0.75 0.87 0.80 0.93 0.84 0.73 0.71 0.72 0.73 0.54 0.41 0.38 0.36 0.37 0.41
0.24 0.22 0.16 0.18 0.16 0.15 0.20 0.32 0.33 0.23 0.17 0.13 0.06 0.02 0.02 0.02 0.02 0.02 0.01 0.01 0.01 0.01 0.01 0.01 0.01 0.04 0.08 0.38 0.53 0.65 0.59 0.62 0.72 0.67 0.49 0.44 0.54 0.44 0.52 0.48 0.50 0.48 0.46
0.06 0.13 0.19 0.14 0.22 0.19 0.13 0.23 0.35 0.33 0.19 0.13 0.05 0.01 0.01 0.01 0.01 0.02 0.02 0.02 0.03 0.03 0.03 0.04 0.03 0.04 0.09 0.24 0.30 0.54 0.45 0.38 0.53 0.63 0.48 0.36 0.46 0.52 0.30 0.46 0.43 0.40 0.42
0.03 0.04 0.09 0.05 0.11 0.21 0.37 0.40 0.43 0.45 0.41 0.22 0.07 0.00 0.00 0.01 0.01 0.02 0.02 0.03 0.05 0.05 0.06 0.08 0.10 0.09 0.18 0.26 0.21 0.31 0.37 0.26 0.28 0.35 0.42 0.38 0.40 0.54 0.49 0.38 0.34 0.29 0.18
0.00 0.01 0.01 0.01 0.02 0.10 0.36 0.70 0.80 0.57 0.52 0.36 0.23 0.06 0.00 0.00 0.01 0.01 0.03 0.06 0.08 0.11 0.10 0.12 0.14 0.13 0.16 0.34 0.25 0.17 0.13 0.20 0.29 0.29 0.38 0.43 0.46 0.66 0.47 0.24 0.13 0.08 0.06
0.00 0.00 0.00 0.00 0.01 0.07 0.22 0.38 0.74 0.80 0.51 0.38 0.24 0.17 0.06 0.01 0.00 0.02 0.05 0.08 0.10 0.12 0.17 0.18 0.19 0.26 0.13 0.31 0.26 0.20 0.06 0.18 0.28 0.36 0.51 0.55 0.35 0.34 0.18 0.07 0.04 0.04 0.04
0.00 0.00 0.00 0.00 0.00 0.04 0.17 0.46 0.68 1.03 0.89 0.54 0.36 0.23 0.12 0.07 0.03 0.05 0.08 0.11 0.15 0.14 0.17 0.17 0.14 0.13 0.17 0.29 0.30 0.24 0.06 0.08 0.14 0.20 0.25 0.33 0.27 0.13 0.08 0.06 0.07 0.08 0.08
0.00 0.00 0.00 0.00 0.00 0.01 0.06 0.20 0.53 1.13 1.49 0.99 0.57 0.37 0.28 0.17 0.08 0.06 0.08 0.10 0.11 0.13 0.13 0.14 0.13 0.13 0.19 0.29 0.25 0.25 0.25 0.28 0.25 0.36 0.40 0.42 0.33 0.22 0.17 0.15 0.16 0.15 0.13
0.00 0.00 0.00 0.00 0.00 0.01 0.02 0.07 0.15 0.33 1.08 1.55 1.36 0.86 0.43 0.42 0.42 0.32 0.29 0.24 0.18 0.16 0.15 0.14 0.19 0.25 0.27 0.41 0.42 0.39 0.41 0.36 0.27 0.36 0.40 0.36 0.28 0.26 0.26 0.21 0.16 0.15 0.15
0.01 0.00 0.00 0.00 0.01 0.01 0.02 0.04 0.05 0.12 0.29 0.70 1.05 1.28 1.10 0.55 0.50 0.70 0.68 0.78 0.80 0.60 0.57 0.55 0.48 0.43 0.42 0.43 0.43 0.42 0.42 0.43 0.40 0.43 0.39 0.36 0.35 0.32 0.28 0.25 0.20 0.14 0.07
0.02 0.02 0.02 0.02 0.03 0.04 0.03 0.05 0.10 0.14 0.19 0.35 0.58 0.69 1.15 0.91 0.42 0.44 0.63 0.65 0.75 0.79 0.64 0.55 0.55 0.57 0.68 0.78 0.73 0.62 0.55 0.50 0.50 0.50 0.49 0.43 0.32 0.23 0.14 0.07 0.04 0.02 0.01
0.14 0.13 0.10 0.07 0.08 0.09 0.10 0.10 0.12 0.17 0.21 0.25 0.49 0.61 0.70 1.03 0.82 0.54 0.77 0.96 1.19 1.20 1.14 1.18 1.08 1.14 1.02 0.92 0.73 0.60 0.52 0.45 0.33 0.21 0.14 0.09 0.06 0.03 0.02 0.01 0.01 0.00 0.00